Location: Mason Neck State Park
(38.6428°N, 77.1981°W)
Time: 05:43:59
(UTC-04:00)

Daily predictions for brighter satellites

Satellite Brightness Start Highest point End
(mag) Time Altitude Azimuth Time Altitude Azimuth Time Altitude Azimuth
NOSS 3-1 (A) 4.0 00:04:43 10° NW 00:12:23 69° WSW 00:12:56 67° SW
Cosmos 1943 Rocket 3.0 00:21:41 45° NE 00:21:41 45° NE 00:25:31 10° NNE
Terra 4.1 00:23:26 16° W 00:23:26 16° W 00:25:44 10° NW
Cosmos 1459 Rocket 4.5 00:34:36 50° NE 00:34:36 50° NE 00:39:21 10° NNE
ATLAS 2AS CENTAUR R/B 3.0 00:25:30 10° NNW 00:33:37 70° NE 00:34:23 66° E
USA 234 3.9 00:35:55 10° NE 00:42:13 52° NW 00:45:23 29° W
MOS 1-B Rocket 4.3 00:45:42 65° NE 00:45:42 65° NE 00:52:09 10° N
Cosmos 2061 Rocket 4.2 00:51:28 67° NNE 00:51:28 67° NNE 00:56:59 10° N
Cosmos 1802 Rocket 4.3 00:56:59 62° NNE 00:56:59 62° NNE 01:02:13 10° N
Cosmos 2173 Rocket 4.2 00:58:53 67° N 00:58:53 67° N 01:04:20 10° N
CZ-2C R/B 4.4 01:06:04 31° NE 01:06:04 31° NE 01:09:08 10° N
Cosmos 1725 Rocket 4.4 01:19:34 55° NE 01:19:34 55° NE 01:24:35 10° NNE
ATLAS 3B CENTAUR R/B 4.3 01:24:02 53° SSE 01:24:02 53° SSE 01:47:49 10° E
ATLAS CENTAUR R/B 4.3 01:26:45 15° ENE 01:26:45 15° ENE 01:27:47 10° ENE
Cosmos 2098 Rocket 4.3 01:31:20 79° ENE 01:31:20 79° ENE 01:38:40 10° N
CZ-2C R/B 3.5 01:33:24 10° N 01:37:09 46° NNW 01:37:09 46° NNW
Tsikada Rocket 4.2 01:33:20 10° N 01:38:51 69° N 01:38:51 69° N
Cosmos 2227 Rocket 2.9 01:51:43 10° NNW 01:56:53 48° NE 01:56:53 48° NE
Cosmos 1943 Rocket 4.3 02:03:11 15° WNW 02:04:18 16° NW 02:07:39 10° NNW
Cosmos 1898 Rocket 4.2 02:12:37 10° N 02:17:17 50° NE 02:17:17 50° NE
Cosmos 2297 Rocket 2.8 02:12:27 10° NNW 02:17:58 51° ENE 02:18:02 51° ENE
Cosmos 2278 4.0 02:19:10 62° N 02:19:10 62° N 02:23:52 10° NNE
Cosmos 2233 Rocket 4.2 02:20:31 62° NW 02:20:31 62° NW 02:25:57 10° N
Cosmos 2369 4.0 02:21:59 63° NNE 02:21:59 63° NNE 02:26:44 10° NNE
Cosmos 1464 Rocket 4.3 02:22:37 59° E 02:22:41 59° E 02:28:53 10° NNE
ATLAS 2AS CENTAUR R/B 4.4 02:17:44 10° NW 02:21:47 23° W 02:21:47 23° W
Cosmos 1937 Rocket 4.4 02:19:26 10° N 02:24:21 42° ENE 02:24:22 42° ENE
Meteor 2-5 Rocket 4.0 02:29:20 10° N 02:35:13 64° E 02:35:22 64° E
Cosmos 1656 3.8 02:44:01 72° ENE 02:44:01 72° ENE 02:49:14 10° NNE
ARIANE 5 R/B 4.3 02:44:18 10° NE 02:48:17 22° E 02:49:12 21° ESE
Cosmos 1513 Rocket 4.3 02:49:03 76° ESE 02:49:15 77° E 02:55:19 10° N
CZ-2D R/B 4.1 02:49:16 10° NE 02:53:04 19° E 02:54:53 16° ESE
AQUA 4.2 02:52:17 10° NNE 02:56:24 59° ENE 02:56:24 59° ENE
BREEZE-M DEB (TANK) 3.8 02:51:02 10° NW 02:58:46 48° WNW 02:58:46 48° WNW
ATLAS CENTAUR R/B 2.6 03:03:04 43° NW 03:03:04 43° NW 03:07:29 10° NNE
Meteor 1-24 Rocket 4.0 02:59:29 10° N 03:05:16 66° E 03:06:30 53° SE
Cosmos 1814 Rocket 4.3 03:06:30 58° NW 03:06:30 58° NW 03:11:29 10° N
IRS-P3 4.2 03:02:56 10° N 03:08:06 68° WNW 03:08:06 68° WNW
Cosmos 1891 Rocket 4.2 03:08:05 74° WSW 03:08:27 78° W 03:14:37 10° N
Meteor 1-22 Rocket 4.4 03:08:03 62° SSE 03:08:58 73° E 03:15:04 10° NNE
SeaSat 1 3.4 03:11:46 36° NW 03:11:46 36° NW 03:14:53 10° NW
ADEOS 3.8 03:05:53 10° NNE 03:11:04 60° ESE 03:11:27 58° ESE
Cosmos 1441 Rocket 4.5 03:08:04 10° N 03:11:37 39° ENE 03:11:37 39° ENE
IRAS Rocket 4.1 03:06:54 10° NNE 03:12:34 82° ESE 03:13:05 73° SSE
Cosmos 1408 Rocket 4.4 03:08:24 10° N 03:12:38 43° E 03:12:57 43° E
Spot 4 Rocket 4.4 03:08:32 10° NNE 03:13:37 55° E 03:14:09 52° SE
CBERS-1 3.9 03:10:42 10° N 03:15:48 80° WNW 03:15:48 80° WNW
Cosmos 1766 Rocket 4.3 03:14:49 10° N 03:19:06 47° E 03:19:36 45° E
Resurs 1-4 Rocket 3.3 03:17:24 10° NNE 03:22:13 35° E 03:23:57 28° SE
Cosmos 1697 Rocket 2.6 03:21:51 66° W 03:22:16 69° WNW 03:27:56 10° NNE
IRS-1D 4.3 03:17:53 10° NNE 03:22:37 42° E 03:23:43 36° SE
Cosmos 990 Rocket 3.9 03:18:09 10° NNW 03:23:20 77° W 03:23:20 77° W
Cosmos 2034 Rocket 4.0 03:25:17 55° WSW 03:25:59 59° W 03:32:05 10° N
BREEZE-M R/B 4.0 03:22:18 10° NW 03:28:37 70° SW 03:35:24 10° SE
SL-08 R/B 3.9 03:30:09 43° WNW 03:30:09 43° WNW 03:33:39 10° NNW
Nadezhda 4 Rocket 3.9 03:23:05 10° N 03:29:19 88° W 03:31:08 50° S
Cosmos 1980 Rocket 2.1 03:31:15 65° SSW 03:32:08 87° ESE 03:37:50 10° NNE
Cosmos 1758 3.7 03:38:49 57° ESE 03:38:56 57° E 03:42:52 10° NNE
Cosmos 2227 Rocket 4.0 03:36:38 10° NW 03:38:39 17° WNW 03:38:39 17° WNW
Cosmos 1953 2.5 03:41:06 63° ESE 03:41:15 64° E 03:45:17 10° NNE
Cosmos 1437 4.0 03:42:11 10° N 03:45:21 39° ENE 03:45:33 38° E
Cosmos 2322 Rocket 3.0 03:43:46 29° SSE 03:46:03 43° ESE 03:51:19 10° NE
NOSS 3-4 (A) 4.0 03:40:59 10° NW 03:47:44 48° WSW 03:49:39 40° SSW
NOSS 3-4 (C) 4.0 03:41:04 10° NW 03:47:50 48° WSW 03:49:53 39° SSW
NPP 4.5 03:44:03 10° N 03:48:51 34° WNW 03:49:32 33° W
SL-16 R/B 2.6 03:45:21 19° SSE 03:49:53 78° ENE 03:56:03 10° N
Cosmos 841 Rocket 4.1 03:56:06 38° W 03:56:58 41° WNW 04:01:57 10° N
SL-24 R/B - RUBIN 2 4.3 03:56:07 43° SSW 03:58:06 78° ESE 04:04:27 10° NE
Cosmos 2026 Rocket 4.3 03:53:34 10° N 03:59:52 65° E 04:06:00 10° SSE
Cosmos 1763 Rocket 4.4 03:59:24 32° W 04:00:14 34° WNW 04:04:56 10° N
Cosmos 1378 4.3 03:57:23 10° NNW 03:59:52 31° NW 03:59:52 31° NW
Cosmos 2297 Rocket 3.8 03:57:29 10° NW 03:59:47 18° WNW 03:59:47 18° WNW
Cosmos 1076 Rocket 4.0 04:00:20 10° NNW 04:04:05 41° W 04:04:05 41° W
Cosmos 1125 Rocket 3.3 04:00:51 10° NNW 04:06:04 77° WSW 04:09:11 24° S
GPS 2-04 Rocket1 3.8 04:09:35 31° SSE 04:09:35 31° SSE 04:12:06 10° SE
Cosmos 1634 Rocket 4.0 04:06:30 34° SSW 04:09:21 72° W 04:15:40 10° N
Cosmos 2195 Rocket 4.4 04:05:18 10° N 04:11:27 89° W 04:16:23 16° S
DELTA 2 R/B (1) 3.9 04:12:49 37° SSW 04:14:36 51° SSE 04:20:00 10° E
CZ-3A R/B 3.9 04:07:23 23° WSW 04:15:11 57° NW 04:19:53 10° NE
ERS-2 3.8 04:13:35 10° NNW 04:16:20 22° WNW 04:16:20 22° WNW
Cosmos 540 Rocket 3.5 04:16:37 37° SW 04:18:36 69° WNW 04:23:47 10° NNE
SL-16 R/B 2.2 04:18:33 28° SSW 04:21:36 82° ESE 04:27:18 10° NNE
Cosmos 1092 Rocket 4.4 04:16:20 10° NNW 04:22:16 45° W 04:25:11 28° SW
MOS 1-B 4.3 04:16:29 10° NNE 04:22:19 84° WNW 04:25:53 25° SSW
Aureole 1 Rocket 4.1 04:19:01 27° SSW 04:22:38 88° WNW 04:30:24 10° NNE
Milstar 3 Cent rocket 3.1 04:21:57 28° SSW 04:22:55 29° S 04:29:02 10° ESE
Cosmos 1470 2.9 04:21:21 29° S 04:23:13 72° E 04:27:11 10° NNE
Cosmos 1500 Rocket 3.4 04:20:41 10° N 04:25:05 89° WNW 04:28:12 19° S
RESURS DK-1 2.2 04:21:09 10° NNW 04:25:18 80° WSW 04:29:26 10° SSE
IRS-1C Rocket 4.5 04:21:23 10° NNE 04:26:36 61° E 04:30:58 15° S
ARIANE 5 R/B 3.1 04:22:42 10° N 04:27:31 41° WNW 04:29:32 29° WSW
CZ-3 R/B 4.0 04:05:11 22° SW 04:28:40 50° S 04:37:51 10° ESE
Cosmos 2263 Rocket 3.4 04:24:51 10° N 04:30:08 42° ENE 04:35:23 10° SE
Cosmos 1743 Rocket 3.7 04:27:05 10° NNW 04:31:18 50° W 04:33:03 30° SSW
CZ-2D R/B 2.5 04:28:10 10° N 04:33:25 51° WNW 04:36:12 26° SW
Cosmos-2242 4.0 04:33:18 27° W 04:34:06 29° WNW 04:37:52 10° NNW
Cosmos 2221 3.7 04:31:22 10° SSE 04:35:21 40° E 04:39:24 10° NNE
Cosmos 1544 3.6 04:38:04 34° WSW 04:38:58 40° W 04:42:26 10° N
PSLV R/B 3.8 04:36:31 10° NNE 04:40:20 76° ESE 04:42:52 20° S
Cosmos 1428 Rocket 4.4 04:36:41 10° N 04:42:51 89° W 04:48:57 10° S
GEOS 3 Rocket 3.5 04:39:34 10° SE 04:44:47 85° SW 04:50:00 10° NW
CZ-4B R/B 3.5 04:40:11 10° NNE 04:45:41 68° ESE 04:51:02 10° S
Cosmos 332 Rocket 4.5 04:43:36 24° WSW 04:45:50 38° WNW 04:50:21 10° N
Cosmos 1733 3.2 04:48:32 22° SSW 04:50:49 63° W 04:54:36 10° N
UNKNOWN OBJECT B 3.6 04:48:06 10° N 04:51:36 33° WNW 04:53:13 23° WSW
Okean O Rocket 1.6 04:48:47 10° N 04:53:12 77° WNW 04:56:55 14° SSW
Lacrosse 5 rocket 4.1 04:53:11 10° N 04:55:40 17° NNE 04:58:11 10° ENE
Meteor 1-16 Rocket 4.5 04:51:59 10° S 04:57:53 78° E 05:03:49 10° NNE
PAYLOAD B 4.2 04:53:08 10° NNE 04:58:46 88° WNW 05:04:21 10° SSW
Cosmos 2279 Rocket 4.3 04:55:03 16° SSW 04:59:56 48° W 05:05:59 10° N
Thor Agena Rocket 3.6 04:56:15 10° SSE 05:01:16 79° ENE 05:06:20 10° N
Resurs 1-4 Rocket 3.2 04:57:31 10° N 05:01:53 27° WNW 05:05:01 16° WSW
Cosmos 1538 Rocket 4.1 04:57:49 16° SSW 05:02:01 64° WNW 05:07:20 10° NNE
Cosmos 1461 3.9 05:00:45 10° WNW 05:03:58 23° WSW 05:06:56 11° SSW
Cosmos 371 Rocket 4.0 05:00:57 18° SW 05:04:00 37° WNW 05:08:29 10° N
ARGOS Delta rocket 3.8 04:59:42 10° N 05:04:44 85° WNW 05:09:26 10° SSW
CZ-2D R/B 4.3 05:01:37 10° N 05:05:38 36° WNW 05:08:44 16° SW
Cosmos 923 Rocket 4.4 05:01:41 10° S 05:06:49 63° ESE 05:11:57 10° NNE
DELTA 2 R/B (2) 3.1 05:05:37 17° W 05:07:23 70° S 05:09:16 10° ESE
CZ-2C R/B 3.8 05:03:13 10° S 05:07:49 57° W 05:12:22 10° NNW
CZ-4B R/B 2.7 05:08:51 10° N 05:12:40 67° WNW 05:16:19 10° SSW
Cosmos 773 Rocket 4.0 05:07:57 10° SSW 05:13:06 86° WNW 05:18:20 10° NNE
ADEOS Rocket 4.1 05:07:48 10° NNE 05:14:25 55° E 05:21:39 10° S
Cosmos 2360 Rocket 2.2 05:10:59 10° SSW 05:16:36 90° ESE 05:22:17 10° NNE
Cosmos 1980 Rocket 4.2 05:13:55 10° W 05:16:54 14° NW 05:19:55 10° NNW
Cosmos 1328 4.1 05:13:55 10° NNW 05:17:49 48° W 05:21:41 10° SSW
Cosmos 1674 3.9 05:15:45 10° NW 05:18:43 22° W 05:21:25 11° SW
Cosmos 921 Rocket 4.1 05:16:11 10° N 05:20:37 52° ENE 05:25:00 10° SSE
OTV 4 3.1 05:21:01 10° SSE 05:21:31 10° SSE 05:22:01 10° SE
GRACE-1 4.4 05:19:47 10° SSW 05:22:31 40° W 05:25:16 10° NNW
GRACE-2 4.4 05:20:13 10° SSW 05:22:57 39° W 05:25:42 10° NNW
Meteor 2-20 Rocket 4.4 05:17:01 10° NNW 05:23:04 70° W 05:29:07 10° S
Cosmos 1805 Rocket 3.5 05:22:14 10° NNW 05:26:35 70° W 05:30:56 10° S
Cosmos 2266 Rocket 4.0 05:21:42 10° N 05:27:51 72° W 05:34:05 10° S
Cosmos 2322 Rocket 3.4 05:25:37 10° WSW 05:30:14 26° WNW 05:34:54 10° N
Cosmos 1346 3.1 05:27:18 10° NNW 05:30:18 56° W 05:33:15 10° S
Cosmos 2151 3.8 05:27:30 10° NNW 05:31:20 32° W 05:35:08 10° SSW
Meteor PRIRODA 4.2 05:28:33 10° NNE 05:32:12 62° E 05:35:51 10° S
SL-16 R/B 4.1 05:30:55 10° WSW 05:34:06 14° W 05:37:18 10° WNW
Sich 1 3.1 05:31:22 10° N 05:35:42 89° WNW 05:40:03 10° S
Meteor 1-11 4.4 05:34:46 10° NNW 05:40:14 54° W 05:45:44 10° S
CSL-04 DEB 4.3 05:36:49 10° NNE 05:40:46 85° WNW 05:44:43 10° SSW
CZ-3 Stage 3 4.1 05:19:06 10° W 05:43:34 40° SW 05:49:02 10° SSE
Okean-O 2.7 05:39:38 10° N 05:44:02 66° WNW 05:48:25 10° SSW
Meteor 2-1 Rocket 4.5 05:39:05 10° SSW 05:44:34 52° WNW 05:49:59 10° N
Cosmos 1515 Rocket 4.4 05:40:52 10° S 05:45:11 56° E 05:49:30 10° NNE
